[[{"header":{"parameterUnit":"m.s-1","parameterCategory":1,"la1":30.2991,"la2":30.254,"lo1":-89.0895,"lo2":-89.0444,"dy":0.0017,"dx":0.0017,"nx":28,"ny":28,"refTime":"2024-11-29T09:00:00:Z","depth":0,"parameterNumber":2,"parameterNumberName":"U-component_of_WINDS"},"data":[0,0,0,0,0,0,0,0,0,0,0,0,0,0,0,0,0,0,0,0,0,0,0,0,0,0,0,0,0,0,0,0,0,0,0,0,0,0,0,0,0,0,0,0,0,0,0,0,0,0,0,0,0,0,0,0,0,0,-1.5443,-1.5443,0,-1.5429,-1.5429,-1.5429,-1.5376,-1.5375,-1.5374,-1.5372,-1.536,-1.5361,-1.5362,0,0,0,0,0,0,0,0,0,0,0,0,0,-1.5425,-1.5425,-1.5443,-1.5443,-1.5443,-1.5429,-1.5429,-1.5429,-1.5376,-1.5375,-1.5373,-1.5372,-1.536,-1.5361,-1.5362,0,0,0,0,0,0,0,0,0,0,0,0,0,-1.5424,-1.5425,-1.5443,-1.5415,-1.5412,-1.5429,-1.5429,-1.5429,-1.5377,-1.5375,-1.5373,-1.5371,-1.536,-1.5361,-1.5362,-1.5406,0,0,-1.5366,-1.5366,0,0,0,0,0,0,0,0,-1.5424,-1.5425,-1.5419,-1.5417,-1.5414,-1.5402,-1.5418,-1.5421,-1.5377,-1.539,-1.5372,-1.537,-1.5376,-1.5376,-1.5377,-1.5406,-1.5405,-1.5366,-1.5367,-1.5367,-1.5368,0,0,0,0,0,0,0,-1.5424,-1.5425,-1.5438,-1.5419,-1.5416,-1.5403,-1.5401,-1.5418,-1.5393,-1.5389,-1.5385,-1.5384,-1.5374,-1.5376,-1.5376,-1.5405,-1.5366,-1.5367,-1.5368,-1.5368,-1.5468,-1.547,0,0,0,0,0,0,-1.5428,-1.5425,-1.5438,-1.5437,-1.5414,-1.5405,-1.5402,-1.5408,-1.5393,-1.5389,-1.5385,-1.5381,-1.5375,-1.5375,-1.5376,-1.5426,-1.5367,-1.5368,-1.5369,-1.5466,-1.5468,-1.547,0,0,0,0,0,0,-1.5428,-1.543,-1.5439,-1.543,-1.543,-1.5407,-1.5414,-1.5409,-1.5411,-1.5391,-1.5386,-1.5392,-1.5373,-1.5374,-1.5399,-1.5425,-1.5369,-1.537,-1.5464,-1.5467,-1.5469,-1.5527,0,0,0,0,0,0,-1.5428,-1.543,-1.5446,-1.5431,-1.5431,-1.5462,-1.5415,-1.541,-1.5413,-1.5407,-1.5396,-1.5392,-1.5372,-1.5397,-1.54,-1.5426,-1.5371,-1.5461,-1.5465,-1.5468,-1.5523,-1.5532,-1.5539,0,0,0,0,0,-1.5427,-1.5464,-1.5447,-1.5449,-1.5451,-1.5463,-1.5463,-1.5439,-1.5415,-1.5431,-1.5418,-1.5392,-1.5421,-1.54,-1.5403,-1.5429,-1.546,-1.5464,-1.5468,-1.5519,-1.553,-1.5539,0,0,0,0,0,0,-1.5484,-1.5461,-1.5443,-1.5476,-1.5472,-1.5454,-1.5474,-1.5452,-1.5455,-1.545,-1.542,-1.5418,-1.5447,-1.544,-1.5417,-1.5471,-1.5436,-1.5441,-1.5474,-1.5484,-1.5492,-1.5494,-1.5372,0,0,0,0,0,-1.55,-1.5512,-1.5491,-1.5522,-1.5521,-1.5498,-1.5503,-1.5484,-1.5479,-1.5477,-1.5466,-1.5463,-1.5471,-1.5477,-1.5484,-1.5521,-1.5518,-1.5541,-1.5549,-1.5556,-1.5561,-1.558,-1.559,-1.5485,-1.5484,-1.5484,0,0,-1.5534,-1.5523,-1.5532,-1.5533,-1.5528,-1.5541,-1.5497,-1.5513,-1.5522,-1.548,-1.5502,-1.5494,-1.5488,-1.5519,-1.5532,-1.5515,-1.5589,-1.5561,-1.5567,-1.5568,-1.5585,-1.5595,-1.5604,-1.5487,-1.5487,-1.5486,0,0,-1.5603,-1.5595,-1.562,-1.5615,-1.5607,-1.5591,-1.5597,-1.5583,-1.5576,-1.5597,-1.5566,-1.5576,-1.5591,-1.5588,-1.5589,-1.5654,-1.5631,-1.5657,-1.5701,-1.5719,-1.5728,-1.5735,-1.5758,-1.5767,-1.5662,-1.5662,-1.5662,0,-1.5646,-1.5663,-1.5636,-1.5653,-1.5654,-1.5615,-1.564,-1.5637,-1.5632,-1.5634,-1.5614,-1.5631,-1.5625,-1.5654,-1.567,-1.5672,-1.5678,-1.5659,-1.5729,-1.5736,-1.5742,-1.5764,-1.5773,-1.5666,-1.5665,-1.5665,-1.5665,0,-1.5717,-1.573,-1.5751,-1.5746,-1.5749,-1.577,-1.5746,-1.5753,-1.5734,-1.572,-1.5742,-1.5733,-1.5736,-1.5742,-1.5724,-1.5769,-1.5758,-1.5734,-1.5699,-1.5756,-1.5776,-1.5784,-1.567,-1.5669,-1.5668,-1.5667,0,0,-1.5823,-1.5801,-1.5809,-1.5806,-1.5794,-1.5803,-1.5822,-1.5825,-1.5831,-1.5829,-1.5844,-1.5857,-1.5834,-1.5834,-1.5815,-1.5832,-1.5884,-1.5805,-1.5805,-1.5821,-1.5933,-1.5952,-1.5962,-1.5868,-1.5869,-1.5871,-1.5934,0,-1.5888,-1.5918,-1.5893,-1.5929,-1.594,-1.5903,-1.5919,-1.5914,-1.5901,-1.5909,-1.5895,-1.5905,-1.5874,-1.5874,-1.5888,-1.5875,-1.5907,-1.587,-1.5882,-1.5883,-1.5886,-1.5973,-1.5993,-1.6053,-1.5941,-1.5943,-1.5944,0,-1.5968,-1.5968,-1.6005,-1.5989,-1.5993,-1.6008,-1.6008,-1.6016,-1.6008,-1.5998,-1.5998,-1.5974,-1.5992,-1.5957,-1.598,-1.5956,-1.5959,-1.5953,-1.5955,-1.5956,-1.5917,-1.5976,-1.6071,-1.608,-1.5956,-1.5955,-1.5954,0,-1.6041,-1.6051,-1.6073,-1.6072,-1.6054,-1.6066,-1.6059,-1.605,-1.6053,-1.6053,-1.6054,-1.6057,-1.6058,-1.606,-1.6038,-1.6014,-1.6065,-1.6028,-1.6057,-1.6058,-1.607,-1.607,-1.6167,-1.6072,-1.6071,-1.6071,-1.6071,0,-1.6117,-1.6141,-1.6106,-1.612,-1.6145,-1.6116,-1.6142,-1.6132,-1.6123,-1.6135,-1.6103,-1.6115,-1.6084,-1.6092,-1.6075,-1.6097,-1.6098,-1.609,-1.6085,-1.6093,-1.6094,-1.6096,-1.6091,-1.6074,-1.6073,-1.6073,-1.6072,0,-1.6204,-1.6181,-1.6203,-1.6184,-1.618,-1.62,-1.6183,-1.6196,-1.618,-1.6195,-1.6197,-1.6174,-1.6182,-1.6159,-1.6164,-1.6152,-1.6184,-1.6173,-1.6187,-1.6184,-1.6214,-1.6212,-1.6316,-1.6329,-1.6225,-1.6226,-1.6227,0,-1.6254,-1.6271,-1.6254,-1.6258,-1.6253,-1.6262,-1.6264,-1.6236,-1.624,-1.6232,-1.6245,-1.625,-1.6253,-1.6267,-1.6251,-1.6254,-1.6243,-1.6279,-1.6243,-1.625,-1.6243,-1.6243,-1.6244,-1.6287,-1.6288,-1.6289,-1.629,0,-1.6345,-1.6333,-1.6337,-1.6337,-1.6341,-1.634,-1.6337,-1.6343,-1.6312,-1.6318,-1.6325,-1.6327,-1.6331,-1.6337,-1.6337,-1.633,-1.6305,-1.6301,-1.6308,-1.6317,-1.6324,-1.6321,-1.6208,-1.6299,-1.6298,-1.6298,-1.6297,-1.6297,-1.6415,-1.6429,-1.6418,-1.6424,-1.6418,-1.6415,-1.6426,-1.6411,-1.6416,-1.6417,-1.64,-1.6411,-1.6402,-1.6399,-1.6394,-1.6402,-1.6386,-1.6396,-1.6399,-1.6402,-1.6407,-1.6323,-1.6402,-1.6402,-1.6402,-1.6401,-1.6401,0,-1.6505,-1.6496,-1.6501,-1.6497,-1.6502,-1.6477,-1.6472,-1.6477,-1.6487,-1.648,-1.6483,-1.6491,-1.6496,-1.648,-1.6482,-1.6492,-1.648,-1.6493,-1.6493,-1.6491,-1.6422,-1.6415,-1.6502,-1.6502,-1.6502,-1.6502,-1.6502,-1.6502,-1.6553,-1.6574,-1.656,-1.6577,-1.6568,-1.6578,-1.6577,-1.6574,-1.6569,-1.6579,-1.6583,-1.6571,-1.6561,-1.6562,-1.6565,-1.656,-1.6563,-1.658,-1.6571,-1.6506,-1.6496,-1.6487,-1.6481,-1.6581,-1.6581,-1.664,-1.6641,-1.6641]},{"header":{"parameterUnit":"m.s-1","parameterCategory":1,"la1":30.2991,"la2":30.254,"lo1":-89.0895,"lo2":-89.0444,"dy":0.0017,"dx":0.0017,"nx":28,"ny":28,"refTime":"2024-11-29T09:00:00:Z","depth":0,"parameterNumber":3,"parameterNumberName":"V-component_of_WINDS"},"data":[0,0,0,0,0,0,0,0,0,0,0,0,0,0,0,0,0,0,0,0,0,0,0,0,0,0,0,0,0,0,0,0,0,0,0,0,0,0,0,0,0,0,0,0,0,0,0,0,0,0,0,0,0,0,0,0,0,0,-7.5725,-7.5725,0,-7.5791,-7.5792,-7.5792,-7.5724,-7.5722,-7.5719,-7.5717,-7.5779,-7.5783,-7.5787,0,0,0,0,0,0,0,0,0,0,0,0,0,-7.5533,-7.5537,-7.5725,-7.5726,-7.5726,-7.5791,-7.5792,-7.5793,-7.5725,-7.5722,-7.5719,-7.5716,-7.5777,-7.5782,-7.5787,0,0,0,0,0,0,0,0,0,0,0,0,0,-7.561,-7.5539,-7.5725,-7.57,-7.5699,-7.5791,-7.5792,-7.5793,-7.5726,-7.5722,-7.5718,-7.5714,-7.5776,-7.5782,-7.5788,-7.5905,0,0,-7.5806,-7.5809,0,0,0,0,0,0,0,0,-7.5605,-7.5617,-7.5703,-7.5702,-7.5701,-7.5746,-7.5747,-7.583,-7.5727,-7.5715,-7.5717,-7.5712,-7.577,-7.5777,-7.5798,-7.5907,-7.591,-7.5807,-7.5811,-7.5813,-7.5815,0,0,0,0,0,0,0,-7.56,-7.5613,-7.5751,-7.5704,-7.5703,-7.5684,-7.5691,-7.5762,-7.5764,-7.5716,-7.5711,-7.572,-7.5769,-7.5792,-7.5799,-7.5911,-7.5807,-7.5812,-7.5816,-7.5818,-7.612,-7.6124,0,0,0,0,0,0,-7.5599,-7.561,-7.5749,-7.5753,-7.5643,-7.5691,-7.5698,-7.5735,-7.5763,-7.5764,-7.5724,-7.5717,-7.5783,-7.5791,-7.58,-7.594,-7.5813,-7.5819,-7.5823,-7.6116,-7.6121,-7.6126,0,0,0,0,0,0,-7.5595,-7.5612,-7.5746,-7.568,-7.5696,-7.5699,-7.574,-7.5738,-7.5761,-7.5769,-7.5768,-7.5747,-7.5781,-7.5792,-7.588,-7.5941,-7.5822,-7.5827,-7.6111,-7.6117,-7.6123,-7.6219,0,0,0,0,0,0,-7.5589,-7.5611,-7.5656,-7.5682,-7.57,-7.5826,-7.5744,-7.5743,-7.5773,-7.5765,-7.5791,-7.5791,-7.5778,-7.5871,-7.5886,-7.5947,-7.5832,-7.6105,-7.6114,-7.6121,-7.621,-7.6227,-7.6242,0,0,0,0,0,-7.5583,-7.5679,-7.5659,-7.5676,-7.5757,-7.583,-7.584,-7.5825,-7.5778,-7.5823,-7.5828,-7.579,-7.5932,-7.588,-7.5897,-7.5961,-7.6101,-7.6111,-7.6121,-7.6203,-7.6224,-7.6242,0,0,0,0,0,0,-7.5658,-7.5682,-7.566,-7.5768,-7.5798,-7.5818,-7.5875,-7.5848,-7.5889,-7.588,-7.5857,-7.5864,-7.5957,-7.5967,-7.591,-7.6075,-7.6009,-7.6022,-7.6065,-7.6086,-7.6102,-7.6097,-7.5837,0,0,0,0,0,-7.5688,-7.5747,-7.5763,-7.5857,-7.5873,-7.5872,-7.5903,-7.5889,-7.5918,-7.5929,-7.594,-7.5969,-7.6019,-7.6053,-7.61,-7.6211,-7.6215,-7.6263,-7.6279,-7.6292,-7.6304,-7.6364,-7.6385,-7.6158,-7.6158,-7.6157,0,0,-7.5749,-7.5769,-7.5807,-7.5873,-7.5894,-7.5954,-7.5883,-7.5949,-7.5993,-7.5938,-7.6023,-7.6032,-7.6062,-7.6162,-7.6207,-7.6174,-7.6368,-7.6305,-7.6315,-7.632,-7.6376,-7.6398,-7.6417,-7.6164,-7.6163,-7.6162,0,0,-7.5891,-7.5912,-7.5993,-7.6017,-7.6051,-7.605,-7.6069,-7.6094,-7.6099,-7.6184,-7.6145,-7.6195,-7.6283,-7.6306,-7.6329,-7.6481,-7.6448,-7.6497,-7.6582,-7.664,-7.6658,-7.6674,-7.6728,-7.6748,-7.6509,-7.6509,-7.6509,0,-7.5962,-7.6053,-7.6037,-7.6107,-7.6137,-7.6093,-7.6173,-7.6196,-7.6243,-7.6264,-7.6226,-7.6336,-7.6353,-7.6458,-7.6496,-7.6516,-7.6536,-7.6494,-7.6657,-7.6673,-7.6687,-7.6739,-7.6759,-7.6515,-7.6514,-7.6513,-7.6513,0,-7.6138,-7.6202,-7.6262,-7.6312,-7.6348,-7.6423,-7.6417,-7.6455,-7.6438,-7.644,-7.6526,-7.6545,-7.6596,-7.6619,-7.6602,-7.6723,-7.6701,-7.6661,-7.6593,-7.6715,-7.6763,-7.6782,-7.6523,-7.6521,-7.6519,-7.6518,0,0,-7.6329,-7.637,-7.6393,-7.6415,-7.645,-7.6498,-7.657,-7.6622,-7.6655,-7.6689,-7.6748,-7.6824,-7.6787,-7.6814,-7.6799,-7.685,-7.697,-7.6804,-7.6804,-7.6834,-7.7103,-7.7133,-7.7156,-7.6948,-7.6951,-7.6954,-7.71,0,-7.6472,-7.6601,-7.6589,-7.671,-7.6768,-7.6728,-7.679,-7.6818,-7.6822,-7.687,-7.6873,-7.6928,-7.6875,-7.6891,-7.694,-7.6945,-7.7023,-7.6934,-7.7002,-7.7004,-7.6996,-7.7181,-7.7213,-7.735,-7.7119,-7.7122,-7.7125,0,-7.6656,-7.67,-7.6828,-7.6855,-7.6879,-7.6936,-7.6982,-7.703,-7.7059,-7.7058,-7.7089,-7.7065,-7.7136,-7.7068,-7.7165,-7.7105,-7.7131,-7.7138,-7.7143,-7.7148,-7.7072,-7.7192,-7.7394,-7.7414,-7.7154,-7.7151,-7.7149,0,-7.6784,-7.6873,-7.6962,-7.6982,-7.7016,-7.7057,-7.7072,-7.7098,-7.713,-7.717,-7.719,-7.7237,-7.7263,-7.7299,-7.7288,-7.7239,-7.7387,-7.7318,-7.7387,-7.7388,-7.742,-7.7419,-7.7629,-7.7438,-7.7437,-7.7437,-7.7437,0,-7.6945,-7.7024,-7.7019,-7.7074,-7.7161,-7.7146,-7.7233,-7.7243,-7.7267,-7.7321,-7.7287,-7.7338,-7.7321,-7.7371,-7.7362,-7.7444,-7.7455,-7.7456,-7.7453,-7.7459,-7.7459,-7.7476,-7.7466,-7.7442,-7.7441,-7.744,-7.7439,0,-7.7101,-7.7102,-7.7195,-7.722,-7.7228,-7.7292,-7.7312,-7.7362,-7.7364,-7.7433,-7.7448,-7.745,-7.7507,-7.75,-7.7562,-7.7556,-7.7658,-7.7643,-7.7649,-7.7646,-7.7716,-7.771,-7.7945,-7.7975,-7.7765,-7.7767,-7.7768,0,-7.7205,-7.7266,-7.7298,-7.7333,-7.7353,-7.7409,-7.7442,-7.7429,-7.7465,-7.7504,-7.7549,-7.7604,-7.7647,-7.7739,-7.7744,-7.7792,-7.7778,-7.7857,-7.7785,-7.779,-7.7779,-7.7776,-7.7782,-7.7872,-7.7874,-7.7876,-7.7878,0,-7.7388,-7.7385,-7.7436,-7.7487,-7.7528,-7.7567,-7.7601,-7.7631,-7.7622,-7.7663,-7.7722,-7.7756,-7.7821,-7.7875,-7.792,-7.7933,-7.7904,-7.7901,-7.7919,-7.7926,-7.7928,-7.7928,-7.7688,-7.7895,-7.7893,-7.7892,-7.7891,-7.789,-7.7521,-7.7574,-7.7605,-7.7662,-7.7688,-7.7722,-7.7771,-7.778,-7.7829,-7.7883,-7.7872,-7.7938,-7.7966,-7.8024,-7.8042,-7.8093,-7.8064,-7.8091,-7.8097,-7.8104,-7.8113,-7.792,-7.8101,-7.81,-7.81,-7.8099,-7.8099,0,-7.7703,-7.7722,-7.7775,-7.7826,-7.7871,-7.7842,-7.7879,-7.7918,-7.7978,-7.8007,-7.8051,-7.8118,-7.8171,-7.8181,-7.8231,-7.8269,-7.8257,-7.8283,-7.828,-7.8283,-7.8136,-7.8115,-7.8292,-7.8292,-7.8292,-7.8292,-7.8292,-7.8292,-7.7803,-7.789,-7.7892,-7.7991,-7.8008,-7.8075,-7.8099,-7.813,-7.8153,-7.8231,-7.8276,-7.8283,-7.8305,-7.8356,-7.8402,-7.8403,-7.8423,-7.8454,-7.8451,-7.8313,-7.8294,-7.8275,-7.8255,-7.8459,-7.8459,-7.8593,-7.8595,-7.8596]}]]